World > North America > United States > Texas

Potosi, Texas Regional Weather

Lat: 32.34N, Lon: 99.68W
Wx Zone: TXZ127Web Search
Potosi Weather Warning NWS WEATHER ALERT FOR THE POTOSI, TX AREA - Issued: 1114 PM CDT Mon Apr 12 2021 Potosi Weather Warning  

Our weather pages are very print friendly and they make great conversation starters.

Feedback


°F Click to change Potosi hourly weather to Imperial units.Click to change Potosi hourly weather to Metric units. °C
Potosi Weather Map
UTC Time: 4/13/2021, 04:27
Your Time:

Potosi, TX Regional Weather

Expires:202104130500;;469217
ASUS44 KFWD 130415
RWRTX 
NORTH TEXAS HOURLY WEATHER ROUNDUP
NATIONAL WEATHER SERVICE FORT WORTH TX
1100 PM CDT MON APR 12 2021

NOTE: "FAIR" INDICATES FEW OR NO CLOUDS BELOW 12,000 FEET WITH NO
SIGNIFICANT WEATHER AND/OR OBSTRUCTIONS TO VISIBILITY.


TXZ083>090-098>101-113>116-127>130-139>142-154-155-130500-
WESTERN NORTH TEXAS
  
CITY           SKY/WX    TMP DP  RH WIND       PRES   REMARKS
WICHITA FALLS  MOCLDY    57  38  48 N14       29.99R                  
WF-KICKAPOO    FAIR      60  37  42 N13G18    30.01R                  
VERNON         FAIR      58  36  43 N14       30.05R                  
ABILENE        CLOUDY    56  47  71 N21G26    30.00R THUNDER          
ABILENE-DYESS  TSTM      52  42  67 N10       29.98F                  
BRECKENRIDGE   TSTM      64  43  45 NE10      29.96R                  
CISCO          CLOUDY    59  45  58 N14       29.95R                  
EASTLAND       CLOUDY    60  44  53 N10       29.95R                  
RANGER         FAIR      62  44  51 NW12G17   29.95R                  
MINERAL WELLS  FAIR      64  43  46 N10       29.92S                  
STEPHENVILLE   FAIR      65  46  49 N13G18    29.92F                  
COMANCHE       FAIR      64  47  55 N10       29.92R                  
BROWNWOOD      CLOUDY    64  45  48 N12       29.93R                  
COLEMAN        MOCLDY    63  40  43 N13       29.95R                  
BRADY          CLOUDY    66  46  48 N10G18    29.92R                  
$$


SKY/WX - Weather  TMP - Temperature  DP - Dew Point  RH - Relative Humidity
WIND - Wind Direction/Speed PRES - Barometric Pressure VSB - Visibility
WCI - Wind Chill Index E13G22 Wind - East Wind 13 mph/Gusts of 22 mph